Location: Petržalka
(48.1109°N, 17.1116°E)
Time: 10:57:48
(UTC+01:00)

Tiangong 2 - Visible Passes

Search period start: 20 March 2019 00:00
Search period end: 30 March 2019 00:00
Orbit: 379 x 390 km, 42.8° (Epoch: 19 March)

Date Brightness Start Highest point End Pass type
(mag) Time Alt. Az. Time Alt. Az. Time Alt. Az.
20 Mar 2.5 04:31:37 23° SSW 04:32:01 24° SSW 04:34:38 10° SE visible
21 Mar 3.8 03:35:00 13° SE 03:35:00 13° SE 03:35:29 10° SE visible
21 Mar 3.3 05:07:14 10° SW 05:08:51 13° SSW 05:10:29 10° S visible
22 Mar 3.2 04:10:42 16° S 04:10:42 16° S 04:11:53 10° SSE visible
